YZ-1 R/B, 43584

Orbit data source: Space-Track

YZ-1 R/B, 43584 is space debris originally from a launch on Sun, 29 Jul 2018 UTC launched from the Xichang Space Center, China (XSC). Debris objects in space refer to the collection of defunct objects orbiting the Earth. Examples of debris include non-operational satellites, rocket bodies, and fragments generated from explosions, collisions, or faulty payload assembly.

Loading next visibility...
Identifier
43584, 2018-062D
Orbit
Active
Country
Flag of CNCN / PRC
Related business
Manufacturer
CALT
Mission
Spacecraft
Bus & Motor
YZ-1, Unknown motor
Mass
~2,075 kg wet, ~2,075 kg dry
Launch date (UTC)
2018-07-29 (8 years ago)
Launch vehicle
Unknown
Launch site
Xichang Space Center, China (XSC)
Object type
Payload
Rocket body
Debris
Shape & HBR
Double Cone, 2.1 m
Radar Cross Section
5.890 m², Large (>1 m²)

Expand to show TLE details & history
Last TLE update: 2 days ago

TLE from 2 days ago
0 YZ-1 R/B
1 43584U 18062D   26254.52587963 -.00000012  00000-0  00000-0 0  9999
2 43584  54.0101 187.9041 0044895  50.0200 310.3512  1.78871133 53062
Epoch: 2026-09-11T12:37Z
TLE epoch observation values (Epoch: 2026-09-11T12:37:16.000Z)
Latitude
-0.00001°
Longitude
8.03113°
Altitude
22,205.593 km
Speed
3.74 km/s
True Right ascension
12h 31m 34s
True Declination
0° 00' 00"
Sunlit
Object was in daylight at epoch
Visualization orbit readout
Latitude
Unknown
Longitude
Unknown
Altitude
Unknown
Speed
Unknown
Apparent Right ascension
Unknown
Apparent Declination
Unknown
Sunlit
N/A
Visualization observer readout
Local Sidereal Time
08:08:02
Azimuth
Unknown
Elevation
Unknown
Doppler factor
Unknown
Orbital elements
Apogee altitude
22,417.129 km
Perigee altitude
22,159.732 km
Semi-major axis
28,666.567 km
Eccentricity
0.00449
Inclination
54.0101°
RAAN
187.9041°
Arg. of periapsis
50.02°
True anomaly
309.95771°
Mean anomaly
310.3512°
Eccentric anomaly
310.1546°
Mean motion
0.44718 °/min
Orbital period
805.05 mins
BSTAR
0
Loading maneuver chart data...
Computing Atmospheric mass density...
Loading historical data...
Loading historical data...
Loading historical data...
Loading historical data...
Loading historical data...
Loading historical data...
Loading historical data...
Other satellites on launch #62 in the year 2018 (2018-07-29 UTC)

Documentation

Showing up to 5 results
|